Weather Roundup
Issued by NWS Springfield, MO

Home | Current Version | Previous Version | Text Only | Print | Product List | Glossary On
Versions: 1 2 3 4 5 6 7 8 9 10 11 12 13 14 15 16 17 18 19 20 21 22 23 24 25 26 27 28 29 30 31 32 33 34 35 36 37 38 39 40 41 42 43 44 45 46 47 48 49 50
000
NZUS99 KSGF 310959
HRRSGF

HOURLY WEATHER
NATIONAL WEATHER SERVICE SPRINGFIELD MO
500 AM CDT THU JUL 31 2014

......SGF CWA......

CITY           SKY/WX    TMP DP  RH WIND       PRES   REMARKS
SPRINGFIELD    CLOUDY    68  65  90 CALM      30.10R
JOPLIN         CLOUDY    65  64  97 NE5       30.09S FOG
WEST PLAINS    CLOUDY    66  63  90 CALM      30.11R
ROLLA          CLEAR     59  58  96 SW3       30.08S FOG
OSAGE BEACH    CLOUDY    57  55  94 CALM      30.09S VSB 1/4
BRANSON        FOG       66  64  94 CALM      30.10F VSB<1/4

......SURROUNDING SGF CWA......

CITY           SKY/WX    TMP DP  RH WIND       PRES   REMARKS
CHANUTE        FOG       61  60  97 CALM      30.10S VSB 1/4
PARSONS        PTCLDY    63  61  93 CALM      30.11R FOG
COFFEYVILLE    CLOUDY    66  64  93 NE6       30.08S
EMPORIA        MOCLDY    58  58 100 W5        30.11S
SILOAM SPRINGS CLOUDY    66  61  82 NE3       30.09S
HARRISON AR    CLOUDY    65  65 100 N3        30.09F FOG
NEAR YELLVILLE CLOUDY    66  66 100 CALM      30.08S

......KANSAS AND MISSOURI......

CITY           SKY/WX    TMP DP  RH WIND       PRES   REMARKS
KANSAS CTY INT PTCLDY    60  56  86 N5        30.11R
DOWNTOWN KC    CLEAR     64  60  87 CALM      30.09S
COLUMBIA       CLEAR     61  57  87 NE5       30.09S
SEDALIA        CLEAR     60  58  92 S5        30.09S
ST JOSEPH      CLOUDY    53  52  96 CALM      30.11R FOG
ST LOUIS       CLEAR     66  59  78 CALM      30.08R
SPIRIT OF STL  CLEAR     59  58  96 CALM      30.07R
KIRKSVILLE     CLEAR     55  53  93 CALM      30.10S FOG
WICHITA        PTCLDY    60  58  92 NW8       30.12R FOG
TOPEKA         PTCLDY    57  55  93 CALM      30.11S
OLATHE         CLEAR     63  59  87 N3        30.10R

......TENNESSEE......

CITY           SKY/WX    TMP DP  RH WIND       PRES   REMARKS
MEMPHIS        CLOUDY    73  63  70 CALM      30.07R
NASHVILLE      MOCLDY    62  59  90 CALM      30.09S

......ARKANSAS.......

CITY           SKY/WX    TMP DP  RH WIND       PRES   REMARKS
FAYETTEVILLE   LGT RAIN  66  65  96 CALM      30.09S
FT SMITH       LGT RAIN  69  67  93 E5        30.06R
LITTLE ROCK    LGT RAIN  67  64  90 S3        30.08S

......OKLAHOMA.......

CITY           SKY/WX    TMP DP  RH WIND       PRES   REMARKS
TULSA          CLOUDY    68  67  96 CALM      30.05R
PONCA CITY     PTCLDY    65  63  93 NE6       30.08S
MCALESTER      RAIN      67  66  97 VRB5      30.04R FOG
OKLAHOMA CITY  CLOUDY    68  65  90 NE10      30.05R

......IOWA............

CITY           SKY/WX    TMP DP  RH WIND       PRES   REMARKS
DES MOINES     CLEAR     62  57  83 CALM      30.08S
QUAD CITIES    CLEAR     60  57  89 CALM      30.05S

......ILLINOIS........

CITY           SKY/WX    TMP DP  RH WIND       PRES   REMARKS
QUINCY         CLEAR     60  58  92 CALM      30.08S
CHICAGO        CLEAR     62  56  80 W5        30.02R



USA.gov is the U.S. government's official web portal to all federal, state and local government web resources and services.